THA109 VQPR-VTSM

Flight info

Callsign THA109
Flight time 2h 52m
Altitude 40000
Route BOGOP R598 SDP/N0460F250 W6 BASEX W3 TEGAK/N0485F390 W3 DAC G463 KANDI/N0483F410 G463 BGO V7 DWI M626 NONEL
Aircraft MD11/H-SDE1E2E3FGHIJ2J3J4J5M1RWXY/LB1D1

Departure

Time 2026-04-21 18:44
Airport Paro International Airport (VQPR)

Arrival

Time 2026-04-21 21:36
Airport Samui International Airport (VTSM)
Time Latitude Longitude Altitude Speed Heading
2026-04-21 17:43 27.40670 89.42089 7283 ft 0 kts 240°
2026-04-21 18:31 27.40674 89.42096 7322 ft 4 kts 245°
2026-04-21 18:31 27.40679 89.42123 7324 ft 4 kts 288°
2026-04-21 18:32 27.40665 89.42146 7327 ft 4 kts 327°
2026-04-21 18:32 27.40655 89.42153 7327 ft 1 kts 330°
2026-04-21 18:32 27.40654 89.42153 7327 ft 0 kts 330°
2026-04-21 18:35 27.40659 89.42150 7328 ft 2 kts 330°
2026-04-21 18:35 27.40687 89.42132 7323 ft 7 kts 330°
2026-04-21 18:36 27.40729 89.42105 7326 ft 6 kts 330°
2026-04-21 18:36 27.40764 89.42083 7329 ft 5 kts 330°
2026-04-21 18:36 27.40776 89.42076 7329 ft 0 kts 330°
2026-04-21 18:40 27.40796 89.42076 7328 ft 5 kts 14°
2026-04-21 18:41 27.40843 89.42109 7337 ft 10 kts 26°
2026-04-21 18:41 27.40939 89.42089 7338 ft 19 kts 332°
2026-04-21 18:41 27.41069 89.42008 7337 ft 21 kts 330°
2026-04-21 18:41 27.41158 89.41940 7336 ft 9 kts 306°
2026-04-21 18:42 27.41180 89.41906 7336 ft 1 kts 324°
2026-04-21 18:42 27.41189 89.41909 7336 ft 1 kts 18°
2026-04-21 18:42 27.41192 89.41920 7336 ft 1 kts 70°
2026-04-21 18:42 27.41186 89.41929 7336 ft 1 kts 129°
2026-04-21 18:43 27.41180 89.41932 7336 ft 0 kts 148°
2026-04-21 18:43 27.41138 89.41958 7336 ft 36 kts 151°
2026-04-21 18:43 27.40639 89.42269 7337 ft 127 kts 150°
2026-04-21 18:44 27.39642 89.42896 7424 ft 190 kts 151°
2026-04-21 18:44 27.38471 89.43658 8319 ft 193 kts 148°
2026-04-21 18:44 27.37359 89.44545 9352 ft 199 kts 144°
2026-04-21 18:44 27.36228 89.45503 10248 ft 207 kts 145°
2026-04-21 18:45 27.35007 89.46365 11031 ft 209 kts 150°
2026-04-21 18:45 27.33800 89.47334 11681 ft 222 kts 134°
2026-04-21 18:45 27.32869 89.48813 12181 ft 240 kts 124°
2026-04-21 18:45 27.31891 89.50448 12533 ft 262 kts 126°
2026-04-21 18:46 27.30821 89.52141 13155 ft 267 kts 129°
2026-04-21 18:46 27.29410 89.53499 13619 ft 275 kts 155°
2026-04-21 18:46 27.27526 89.54092 13886 ft 290 kts 175°
2026-04-21 18:46 27.25444 89.54318 14009 ft 313 kts 178°
2026-04-21 18:47 27.23202 89.54471 14114 ft 333 kts 179°
2026-04-21 18:47 27.20822 89.54662 14382 ft 354 kts 176°
2026-04-21 18:47 27.18276 89.55094 14525 ft 385 kts 170°
2026-04-21 18:47 27.15643 89.55836 15180 ft 397 kts 169°
2026-04-21 18:48 27.12979 89.56792 15989 ft 406 kts 166°
2026-04-21 18:48 27.10305 89.57891 16829 ft 412 kts 164°
2026-04-21 18:48 27.07612 89.59077 17620 ft 420 kts 163°
2026-04-21 18:48 27.04895 89.60319 18449 ft 424 kts 163°
2026-04-21 18:49 27.02155 89.61587 19141 ft 428 kts 163°
2026-04-21 18:49 26.99390 89.62873 19835 ft 432 kts 163°
2026-04-21 18:49 26.97550 89.63729 20297 ft 433 kts 163°
2026-04-21 18:49 26.93798 89.65471 21226 ft 438 kts 163°
2026-04-21 18:50 26.90970 89.66779 21948 ft 442 kts 163°
2026-04-21 18:50 26.88122 89.68094 22723 ft 445 kts 164°
2026-04-21 18:50 26.85249 89.69419 23500 ft 447 kts 164°
2026-04-21 18:50 26.82354 89.70752 24141 ft 450 kts 165°
2026-04-21 18:51 26.79417 89.71947 24695 ft 449 kts 171°
2026-04-21 18:51 26.76384 89.72688 25285 ft 444 kts 180°
2026-04-21 18:51 26.73330 89.72784 25775 ft 436 kts 191°
2026-04-21 18:51 26.70368 89.72198 26359 ft 430 kts 202°
2026-04-21 18:52 26.67592 89.71012 27002 ft 425 kts 212°
2026-04-21 18:52 26.65018 89.69413 27634 ft 424 kts 217°
2026-04-21 18:52 26.62522 89.67639 28239 ft 426 kts 218°
2026-04-21 18:52 26.60070 89.65844 28851 ft 429 kts 218°
2026-04-21 18:53 26.57558 89.64022 29478 ft 432 kts 218°
2026-04-21 18:53 26.55009 89.62207 29956 ft 437 kts 218°
2026-04-21 18:53 26.52428 89.60401 30433 ft 440 kts 217°
2026-04-21 18:53 26.49821 89.58600 31001 ft 438 kts 218°
2026-04-21 18:54 26.47238 89.56830 31705 ft 433 kts 218°
2026-04-21 18:54 26.44686 89.55090 32432 ft 427 kts 218°
2026-04-21 18:54 26.42164 89.53370 33153 ft 422 kts 218°
2026-04-21 18:54 26.39679 89.51674 33839 ft 416 kts 219°
2026-04-21 18:55 26.38052 89.50563 34206 ft 413 kts 219°
2026-04-21 18:55 26.34786 89.48329 34817 ft 410 kts 219°
2026-04-21 18:55 26.32421 89.46589 35227 ft 404 kts 223°
2026-04-21 18:55 26.30221 89.44661 35649 ft 400 kts 226°
2026-04-21 18:56 26.28110 89.42655 36030 ft 398 kts 227°
2026-04-21 18:56 26.26035 89.40631 36423 ft 396 kts 227°
2026-04-21 18:56 26.23964 89.38606 36795 ft 395 kts 227°
2026-04-21 18:56 26.21898 89.36597 37185 ft 394 kts 227°
2026-04-21 18:57 26.19832 89.34599 37580 ft 393 kts 227°
2026-04-21 18:57 26.17764 89.32609 37938 ft 393 kts 227°
2026-04-21 18:57 26.15697 89.30626 38274 ft 392 kts 227°
2026-04-21 18:57 26.13632 89.28649 38573 ft 391 kts 227°
2026-04-21 18:58 26.11571 89.26676 38796 ft 392 kts 227°
2026-04-21 18:58 26.09504 89.24691 39028 ft 392 kts 227°
2026-04-21 18:58 26.07461 89.22689 39267 ft 391 kts 227°
2026-04-21 18:58 26.05437 89.20682 39519 ft 390 kts 228°
2026-04-21 18:59 26.03415 89.18669 39727 ft 391 kts 228°
2026-04-21 18:59 25.99379 89.14588 39807 ft 393 kts 229°
2026-04-21 19:00 25.95385 89.10441 39812 ft 393 kts 229°
2026-04-21 19:00 25.91389 89.06281 39810 ft 395 kts 229°
2026-04-21 19:01 25.87345 89.02140 39802 ft 397 kts 226°
2026-04-21 19:01 25.82785 88.98595 39795 ft 407 kts 216°
2026-04-21 19:02 25.77442 88.96330 39802 ft 423 kts 202°
2026-04-21 19:02 25.75482 88.95898 39793 ft 429 kts 198°
2026-04-21 19:03 25.70323 88.95635 39779 ft 447 kts 187°
2026-04-21 19:03 25.67207 88.96074 39786 ft 458 kts 179°
2026-04-21 19:03 25.64084 88.96989 39794 ft 470 kts 172°
2026-04-21 19:04 25.57981 88.99854 39783 ft 480 kts 165°
2026-04-21 19:04 25.51946 89.03050 39784 ft 480 kts 165°
2026-04-21 19:05 25.45890 89.06167 39779 ft 479 kts 166°
2026-04-21 19:05 25.39820 89.09196 39785 ft 478 kts 167°
2026-04-21 19:06 25.33744 89.12200 39782 ft 478 kts 167°
2026-04-21 19:06 25.27668 89.15203 39780 ft 478 kts 167°
2026-04-21 19:07 25.21590 89.18204 39777 ft 478 kts 167°
2026-04-21 19:07 25.16539 89.20695 39774 ft 478 kts 167°
2026-04-21 19:08 25.09435 89.24197 39772 ft 478 kts 166°
2026-04-21 19:08 25.03361 89.27187 39776 ft 478 kts 166°
2026-04-21 19:09 24.97322 89.30157 39770 ft 478 kts 166°
2026-04-21 19:09 24.91241 89.33145 39774 ft 478 kts 166°
2026-04-21 19:10 24.85163 89.36131 39774 ft 478 kts 166°
2026-04-21 19:10 24.79087 89.39125 39774 ft 479 kts 166°
2026-04-21 19:11 24.73007 89.42123 39774 ft 478 kts 166°
2026-04-21 19:11 24.66933 89.45114 39769 ft 478 kts 166°
2026-04-21 19:12 24.61882 89.47600 39773 ft 478 kts 166°
2026-04-21 19:12 24.54783 89.51089 39771 ft 478 kts 166°
2026-04-21 19:13 24.48702 89.54074 39774 ft 478 kts 166°
2026-04-21 19:13 24.42627 89.57053 39776 ft 478 kts 166°
2026-04-21 19:14 24.36555 89.60067 39766 ft 481 kts 162°
2026-04-21 19:14 24.30960 89.64330 39776 ft 504 kts 144°
2026-04-21 19:14 24.28611 89.67229 39774 ft 515 kts 134°
2026-04-21 19:15 24.26610 89.70528 39778 ft 523 kts 128°
2026-04-21 19:15 24.22929 89.77415 39778 ft 523 kts 128°
2026-04-21 19:16 24.19029 89.84120 39780 ft 520 kts 131°
2026-04-21 19:16 24.14931 89.90626 39778 ft 519 kts 133°
2026-04-21 19:17 24.08739 90.00277 39776 ft 519 kts 133°
2026-04-21 19:17 24.04604 90.06753 39771 ft 519 kts 132°
2026-04-21 19:18 24.00486 90.13233 39782 ft 519 kts 132°
2026-04-21 19:18 23.96371 90.19711 39787 ft 519 kts 132°
2026-04-21 19:19 23.92946 90.25093 39782 ft 519 kts 132°
2026-04-21 19:19 23.88128 90.32654 39789 ft 519 kts 132°
2026-04-21 19:20 23.83986 90.39105 39789 ft 516 kts 135°
2026-04-21 19:20 23.79083 90.44629 39787 ft 501 kts 148°
2026-04-21 19:21 23.73668 90.49367 39791 ft 498 kts 150°
2026-04-21 19:21 23.68251 90.54069 39795 ft 499 kts 149°
2026-04-21 19:22 23.62866 90.58884 39797 ft 500 kts 148°
2026-04-21 19:22 23.57516 90.63725 39797 ft 500 kts 148°
2026-04-21 19:23 23.52166 90.68565 39797 ft 500 kts 148°
2026-04-21 19:23 23.46799 90.73391 39793 ft 500 kts 149°
2026-04-21 19:24 23.41432 90.78199 39790 ft 499 kts 148°
2026-04-21 19:24 23.36068 90.83003 39810 ft 499 kts 148°
2026-04-21 19:25 23.30742 90.87772 39809 ft 499 kts 148°
2026-04-21 19:25 23.25379 90.92575 39819 ft 499 kts 148°
2026-04-21 19:26 23.20020 90.97373 39825 ft 499 kts 148°
2026-04-21 19:26 23.14676 91.02206 39823 ft 500 kts 148°
2026-04-21 19:27 23.09355 91.07075 39815 ft 500 kts 147°
2026-04-21 19:27 23.04041 91.11939 39828 ft 499 kts 147°
2026-04-21 19:28 22.99591 91.16004 39828 ft 499 kts 147°
2026-04-21 19:28 22.94267 91.20857 39833 ft 500 kts 147°
2026-04-21 19:29 22.88933 91.25715 39831 ft 500 kts 147°
2026-04-21 19:29 22.83635 91.30532 39835 ft 500 kts 147°
2026-04-21 19:30 22.78298 91.35377 39835 ft 500 kts 147°
2026-04-21 19:30 22.72968 91.40214 39826 ft 500 kts 147°
2026-04-21 19:31 22.67637 91.45051 39835 ft 500 kts 147°
2026-04-21 19:31 22.62343 91.49848 39831 ft 500 kts 147°
2026-04-21 19:32 22.57016 91.54666 39827 ft 501 kts 147°
2026-04-21 19:32 22.51660 91.59496 39826 ft 501 kts 147°
2026-04-21 19:33 22.46318 91.64316 39829 ft 502 kts 147°
2026-04-21 19:33 22.40965 91.69143 39829 ft 500 kts 147°
2026-04-21 19:34 22.35624 91.73953 39830 ft 500 kts 147°
2026-04-21 19:34 22.30277 91.78764 39829 ft 500 kts 147°
2026-04-21 19:35 22.22254 91.85957 39830 ft 500 kts 147°
2026-04-21 19:36 22.16897 91.90741 39840 ft 500 kts 147°
2026-04-21 19:36 22.11573 91.95495 39832 ft 501 kts 147°
2026-04-21 19:37 22.06203 92.00288 39833 ft 501 kts 147°
2026-04-21 19:37 22.00833 92.05076 39840 ft 501 kts 147°
2026-04-21 19:38 21.95460 92.09862 39838 ft 501 kts 147°
2026-04-21 19:38 21.90064 92.14603 39845 ft 501 kts 147°
2026-04-21 19:39 21.84648 92.19317 39844 ft 500 kts 147°
2026-04-21 19:39 21.79229 92.24033 39839 ft 500 kts 147°
2026-04-21 19:40 21.73823 92.28738 39868 ft 500 kts 147°
2026-04-21 19:40 21.68412 92.33444 39881 ft 501 kts 147°
2026-04-21 19:41 21.62997 92.38150 39885 ft 501 kts 147°
2026-04-21 19:41 21.57576 92.42856 39883 ft 501 kts 147°
2026-04-21 19:42 21.52287 92.47776 39888 ft 504 kts 143°
2026-04-21 19:42 21.47164 92.52938 39889 ft 505 kts 143°
2026-04-21 19:43 21.42058 92.58119 39883 ft 504 kts 142°
2026-04-21 19:43 21.36953 92.63256 39887 ft 502 kts 142°
2026-04-21 19:44 21.31847 92.68365 39904 ft 502 kts 143°
2026-04-21 19:44 21.26762 92.73445 39891 ft 503 kts 143°
2026-04-21 19:45 21.21638 92.78563 39892 ft 504 kts 143°
2026-04-21 19:45 21.16505 92.83684 39893 ft 504 kts 143°
2026-04-21 19:46 21.11378 92.88796 39872 ft 504 kts 142°
2026-04-21 19:46 21.06257 92.93897 39888 ft 502 kts 142°
2026-04-21 19:47 21.01145 92.98982 39889 ft 502 kts 142°
2026-04-21 19:47 20.96028 93.04068 39886 ft 502 kts 142°
2026-04-21 19:48 20.90905 93.09140 39893 ft 502 kts 143°
2026-04-21 19:48 20.85780 93.14211 39891 ft 502 kts 142°
2026-04-21 19:49 20.80662 93.19282 39889 ft 502 kts 142°
2026-04-21 19:49 20.75543 93.24350 39896 ft 501 kts 142°
2026-04-21 19:50 20.71302 93.28547 39900 ft 500 kts 142°
2026-04-21 19:50 20.65337 93.34441 39896 ft 500 kts 142°
2026-04-21 19:51 20.60270 93.39441 39908 ft 500 kts 142°
2026-04-21 19:51 20.55163 93.44477 39900 ft 500 kts 142°
2026-04-21 19:52 20.50062 93.49504 39902 ft 499 kts 142°
2026-04-21 19:52 20.44957 93.54529 39912 ft 499 kts 142°
2026-04-21 19:53 20.39861 93.59540 39902 ft 498 kts 142°
2026-04-21 19:53 20.34763 93.64548 39905 ft 499 kts 142°
2026-04-21 19:54 20.29653 93.69551 39898 ft 499 kts 142°
2026-04-21 19:54 20.24542 93.74551 39898 ft 499 kts 142°
2026-04-21 19:55 20.19439 93.79549 39901 ft 498 kts 142°
2026-04-21 19:55 20.14328 93.84550 39903 ft 500 kts 142°
2026-04-21 19:56 20.09205 93.89559 39894 ft 501 kts 142°
2026-04-21 19:56 20.04085 93.94562 39902 ft 499 kts 142°
2026-04-21 19:57 19.98966 93.99560 39899 ft 499 kts 142°
2026-04-21 19:57 19.93852 94.04546 39904 ft 499 kts 142°
2026-04-21 19:58 19.88732 94.09534 39903 ft 499 kts 142°
2026-04-21 19:58 19.83613 94.14516 39909 ft 499 kts 142°
2026-04-21 19:59 19.78488 94.19499 39908 ft 499 kts 142°
2026-04-21 19:59 19.73373 94.24469 39906 ft 498 kts 142°
2026-04-21 20:00 19.68262 94.29418 39904 ft 497 kts 142°
2026-04-21 20:00 19.63189 94.34327 39904 ft 497 kts 142°
2026-04-21 20:01 19.58049 94.39304 39908 ft 497 kts 142°
2026-04-21 20:01 19.52977 94.44214 39902 ft 497 kts 142°
2026-04-21 20:02 19.47874 94.49150 39901 ft 497 kts 142°
2026-04-21 20:02 19.42773 94.54076 39912 ft 497 kts 141°
2026-04-21 20:03 19.37672 94.59003 39890 ft 496 kts 141°
2026-04-21 20:03 19.32573 94.63922 39896 ft 496 kts 141°
2026-04-21 20:04 19.27468 94.68842 39897 ft 496 kts 141°
2026-04-21 20:04 19.22326 94.73687 39884 ft 495 kts 142°
2026-04-21 20:05 19.17134 94.78480 39891 ft 495 kts 143°
2026-04-21 20:05 19.11945 94.83266 39893 ft 495 kts 143°
2026-04-21 20:06 19.06765 94.88052 39875 ft 494 kts 143°
2026-04-21 20:06 19.01590 94.92834 39884 ft 493 kts 142°
2026-04-21 20:07 18.96424 94.97603 39884 ft 493 kts 142°
2026-04-21 20:07 18.92131 95.01562 39885 ft 493 kts 142°
2026-04-21 20:08 18.86095 95.07125 39874 ft 493 kts 142°
2026-04-21 20:08 18.80928 95.11882 39873 ft 493 kts 142°
2026-04-21 20:09 18.75762 95.16634 39878 ft 493 kts 142°
2026-04-21 20:09 18.70594 95.21385 39868 ft 493 kts 142°
2026-04-21 20:10 18.65459 95.26100 39867 ft 493 kts 142°
2026-04-21 20:10 18.60285 95.30840 39873 ft 493 kts 142°
2026-04-21 20:11 18.55109 95.35574 39866 ft 493 kts 142°
2026-04-21 20:11 18.49925 95.40320 39868 ft 493 kts 142°
2026-04-21 20:12 18.44756 95.45075 39870 ft 494 kts 142°
2026-04-21 20:12 18.40522 95.49104 39876 ft 494 kts 141°
2026-04-21 20:12 18.37131 95.52360 40101 ft 491 kts 141°
2026-04-21 20:13 18.34610 95.54762 40317 ft 489 kts 141°
2026-04-21 20:13 18.32096 95.57190 40019 ft 490 kts 140°
2026-04-21 20:13 18.29588 95.59632 39925 ft 491 kts 140°
2026-04-21 20:14 18.24540 95.64501 39863 ft 493 kts 141°
2026-04-21 20:14 18.19468 95.69354 39872 ft 493 kts 141°
2026-04-21 20:15 18.14397 95.74208 39873 ft 493 kts 141°
2026-04-21 20:15 18.09325 95.79063 39873 ft 493 kts 141°
2026-04-21 20:16 18.04255 95.83913 39870 ft 493 kts 141°
2026-04-21 20:16 17.99213 95.88731 39864 ft 493 kts 140°
2026-04-21 20:17 17.94963 95.92790 39865 ft 492 kts 141°
2026-04-21 20:17 17.89073 95.98410 39885 ft 492 kts 141°
2026-04-21 20:18 17.84861 96.02425 39870 ft 492 kts 141°
2026-04-21 20:18 17.79750 96.07283 39875 ft 492 kts 141°
2026-04-21 20:19 17.74709 96.12073 39880 ft 493 kts 141°
2026-04-21 20:19 17.69626 96.16905 39878 ft 493 kts 141°
2026-04-21 20:20 17.64548 96.21732 39867 ft 493 kts 140°
2026-04-21 20:20 17.59479 96.26546 39882 ft 492 kts 140°
2026-04-21 20:21 17.54409 96.31357 39866 ft 492 kts 140°
2026-04-21 20:21 17.49330 96.36172 39880 ft 492 kts 140°
2026-04-21 20:22 17.44259 96.40976 39873 ft 492 kts 140°
2026-04-21 20:22 17.36602 96.48130 39864 ft 490 kts 145°
2026-04-21 20:23 17.30822 96.51824 39878 ft 486 kts 156°
2026-04-21 20:23 17.24756 96.54934 39873 ft 485 kts 157°
2026-04-21 20:24 17.18718 96.58048 39884 ft 485 kts 156°
2026-04-21 20:24 17.12697 96.61246 39869 ft 485 kts 156°
2026-04-21 20:25 17.06699 96.64464 39881 ft 485 kts 155°
2026-04-21 20:25 17.03700 96.66070 39855 ft 481 kts 167°
2026-04-21 20:25 17.00668 96.67477 39816 ft 473 kts 168°
2026-04-21 20:26 16.94727 96.70259 39882 ft 464 kts 166°
2026-04-21 20:26 16.88989 96.73228 39881 ft 456 kts 164°
2026-04-21 20:27 16.83390 96.76243 39878 ft 449 kts 164°
2026-04-21 20:27 16.77878 96.79204 39803 ft 443 kts 168°
2026-04-21 20:28 16.72324 96.81893 39450 ft 440 kts 165°
2026-04-21 20:28 16.69651 96.83352 39757 ft 429 kts 163°
2026-04-21 20:28 16.67055 96.84840 39859 ft 423 kts 162°
2026-04-21 20:29 16.61977 96.87747 39893 ft 420 kts 153°
2026-04-21 20:29 16.56860 96.90842 39891 ft 431 kts 153°
2026-04-21 20:30 16.51524 96.93888 39895 ft 443 kts 154°
2026-04-21 20:30 16.45965 96.96892 39900 ft 457 kts 155°
2026-04-21 20:31 16.40216 96.99947 39901 ft 471 kts 155°
2026-04-21 20:31 16.34309 97.03082 39899 ft 480 kts 155°
2026-04-21 20:32 16.28342 97.06252 39893 ft 482 kts 155°
2026-04-21 20:32 16.22373 97.09421 39893 ft 482 kts 155°
2026-04-21 20:33 16.16420 97.12580 39905 ft 480 kts 155°
2026-04-21 20:33 16.10478 97.15729 39903 ft 479 kts 155°
2026-04-21 20:34 16.04528 97.18881 39897 ft 479 kts 155°
2026-04-21 20:34 15.98590 97.22024 39909 ft 479 kts 155°
2026-04-21 20:35 15.92652 97.25165 39902 ft 479 kts 155°
2026-04-21 20:35 15.86718 97.28300 39897 ft 478 kts 155°
2026-04-21 20:36 15.80805 97.31418 39911 ft 476 kts 155°
2026-04-21 20:36 15.74911 97.34526 39904 ft 475 kts 155°
2026-04-21 20:37 15.69020 97.37633 39909 ft 475 kts 155°
2026-04-21 20:37 15.63141 97.40732 39906 ft 474 kts 155°
2026-04-21 20:38 15.57302 97.43809 39903 ft 474 kts 155°
2026-04-21 20:38 15.51427 97.46902 39910 ft 473 kts 155°
2026-04-21 20:39 15.45569 97.49984 39911 ft 471 kts 154°
2026-04-21 20:39 15.39724 97.53058 39907 ft 471 kts 154°
2026-04-21 20:40 15.33886 97.56126 39904 ft 471 kts 154°
2026-04-21 20:40 15.28043 97.59194 39912 ft 471 kts 154°
2026-04-21 20:41 15.22185 97.62268 39905 ft 472 kts 154°
2026-04-21 20:41 15.16321 97.65344 39912 ft 473 kts 154°
2026-04-21 20:42 15.10453 97.68418 39910 ft 473 kts 154°
2026-04-21 20:42 15.04582 97.71488 39910 ft 473 kts 154°
2026-04-21 20:43 14.98717 97.74556 39911 ft 473 kts 154°
2026-04-21 20:43 14.92848 97.77626 39912 ft 472 kts 154°
2026-04-21 20:44 14.86982 97.80694 39910 ft 472 kts 154°
2026-04-21 20:44 14.81114 97.83760 39915 ft 472 kts 154°
2026-04-21 20:45 14.75255 97.86820 39898 ft 471 kts 154°
2026-04-21 20:45 14.69410 97.89871 39904 ft 471 kts 154°
2026-04-21 20:46 14.63560 97.92922 39906 ft 471 kts 154°
2026-04-21 20:46 14.57750 97.95951 39907 ft 471 kts 154°
2026-04-21 20:47 14.51899 97.98999 39902 ft 472 kts 154°
2026-04-21 20:47 14.46023 98.02057 39901 ft 474 kts 155°
2026-04-21 20:48 14.40143 98.05120 39896 ft 473 kts 154°
2026-04-21 20:48 14.34256 98.08176 39903 ft 474 kts 155°
2026-04-21 20:49 14.28369 98.11231 39897 ft 473 kts 155°
2026-04-21 20:49 14.22491 98.14284 39902 ft 473 kts 155°
2026-04-21 20:50 14.16615 98.17333 39894 ft 473 kts 155°
2026-04-21 20:50 14.10732 98.20388 39901 ft 473 kts 154°
2026-04-21 20:51 14.04860 98.23459 39890 ft 474 kts 154°
2026-04-21 20:51 13.98990 98.26542 39892 ft 474 kts 154°
2026-04-21 20:52 13.93112 98.29630 39895 ft 474 kts 154°
2026-04-21 20:52 13.87231 98.32715 39894 ft 474 kts 154°
2026-04-21 20:53 13.81336 98.35805 39890 ft 477 kts 154°
2026-04-21 20:53 13.75412 98.38908 39897 ft 478 kts 153°
2026-04-21 20:54 13.69494 98.42007 39890 ft 478 kts 154°
2026-04-21 20:54 13.63567 98.45109 39892 ft 477 kts 153°
2026-04-21 20:55 13.57655 98.48202 39892 ft 476 kts 154°
2026-04-21 20:55 13.51744 98.51292 39894 ft 477 kts 154°
2026-04-21 20:56 13.45825 98.54404 39894 ft 478 kts 153°
2026-04-21 20:56 13.39921 98.57534 39891 ft 478 kts 154°
2026-04-21 20:57 13.34054 98.60646 39890 ft 478 kts 153°
2026-04-21 20:57 13.28140 98.63781 39889 ft 479 kts 153°
2026-04-21 20:58 13.22228 98.66911 39891 ft 477 kts 153°
2026-04-21 20:58 13.16317 98.70039 39887 ft 478 kts 153°
2026-04-21 20:59 13.10412 98.73162 39888 ft 478 kts 153°
2026-04-21 20:59 13.04507 98.76283 39886 ft 477 kts 153°
2026-04-21 21:00 12.98593 98.79408 39888 ft 479 kts 153°
2026-04-21 21:00 12.92664 98.82538 39895 ft 480 kts 153°
2026-04-21 21:01 12.86735 98.85667 39886 ft 479 kts 153°
2026-04-21 21:01 12.80792 98.88802 39892 ft 481 kts 153°
2026-04-21 21:02 12.74841 98.91939 39880 ft 480 kts 153°
2026-04-21 21:02 12.68902 98.95063 39882 ft 479 kts 153°
2026-04-21 21:03 12.62966 98.98186 39885 ft 480 kts 153°
2026-04-21 21:03 12.57032 99.01308 39884 ft 478 kts 152°
2026-04-21 21:04 12.51115 99.04421 39886 ft 478 kts 152°
2026-04-21 21:04 12.45204 99.07529 39879 ft 477 kts 153°
2026-04-21 21:05 12.40277 99.10119 39880 ft 480 kts 152°
2026-04-21 21:05 12.34320 99.13248 39878 ft 481 kts 153°
2026-04-21 21:06 12.28374 99.16370 39877 ft 481 kts 153°
2026-04-21 21:06 12.22409 99.19500 39880 ft 483 kts 152°
2026-04-21 21:07 12.16427 99.22637 39876 ft 484 kts 152°
2026-04-21 21:07 12.10452 99.25769 39880 ft 482 kts 153°
2026-04-21 21:08 12.04505 99.28885 39879 ft 480 kts 152°
2026-04-21 21:08 11.98546 99.32004 39882 ft 482 kts 152°
2026-04-21 21:09 11.92631 99.35095 39880 ft 479 kts 153°
2026-04-21 21:09 11.86705 99.38193 39881 ft 479 kts 152°
2026-04-21 21:10 11.80774 99.41295 39885 ft 479 kts 152°
2026-04-21 21:10 11.74844 99.44394 39878 ft 480 kts 152°
2026-04-21 21:11 11.71864 99.45951 39687 ft 481 kts 152°
2026-04-21 21:11 11.68894 99.47502 39449 ft 480 kts 152°
2026-04-21 21:11 11.65917 99.49057 39070 ft 481 kts 152°
2026-04-21 21:11 11.62936 99.50615 38552 ft 482 kts 152°
2026-04-21 21:12 11.59944 99.52184 37948 ft 484 kts 152°
2026-04-21 21:12 11.56952 99.53758 37381 ft 485 kts 152°
2026-04-21 21:12 11.53949 99.55339 36838 ft 486 kts 152°
2026-04-21 21:12 11.50944 99.56922 36279 ft 487 kts 152°
2026-04-21 21:13 11.47928 99.58511 35756 ft 488 kts 152°
2026-04-21 21:13 11.44903 99.60103 35219 ft 490 kts 152°
2026-04-21 21:13 11.41872 99.61698 34677 ft 491 kts 152°
2026-04-21 21:13 11.38835 99.63295 34127 ft 492 kts 151°
2026-04-21 21:14 11.35791 99.64896 33502 ft 494 kts 151°
2026-04-21 21:14 11.32731 99.66505 32857 ft 495 kts 151°
2026-04-21 21:14 11.29666 99.68116 32237 ft 497 kts 151°
2026-04-21 21:14 11.26590 99.69732 31655 ft 498 kts 151°
2026-04-21 21:15 11.23503 99.71354 31062 ft 500 kts 151°
2026-04-21 21:15 11.20411 99.72978 30443 ft 501 kts 151°
2026-04-21 21:15 11.17314 99.74604 29781 ft 500 kts 151°
2026-04-21 21:15 11.14235 99.76215 29074 ft 495 kts 151°
2026-04-21 21:16 11.11183 99.77794 28399 ft 490 kts 151°
2026-04-21 21:16 11.08154 99.79352 27733 ft 485 kts 151°
2026-04-21 21:16 11.05156 99.80891 27082 ft 481 kts 151°
2026-04-21 21:16 11.02317 99.82347 26470 ft 476 kts 151°
2026-04-21 21:17 10.99422 99.83833 25852 ft 472 kts 152°
2026-04-21 21:17 10.96465 99.85351 25214 ft 468 kts 151°
2026-04-21 21:17 10.93609 99.86819 24601 ft 464 kts 151°
2026-04-21 21:17 10.90734 99.88274 23982 ft 461 kts 154°
2026-04-21 21:18 10.87778 99.89505 23300 ft 458 kts 158°
2026-04-21 21:18 10.84780 99.90535 22572 ft 453 kts 161°
2026-04-21 21:18 10.81780 99.91472 21869 ft 448 kts 162°
2026-04-21 21:18 10.78813 99.92374 21206 ft 442 kts 162°
2026-04-21 21:19 10.75881 99.93271 20573 ft 437 kts 162°
2026-04-21 21:19 10.72993 99.94167 19945 ft 432 kts 162°
2026-04-21 21:19 10.70141 99.95063 19377 ft 427 kts 161°
2026-04-21 21:19 10.67316 99.95957 18776 ft 423 kts 161°
2026-04-21 21:20 10.64521 99.96846 18185 ft 419 kts 161°
2026-04-21 21:20 10.61758 99.97726 17505 ft 414 kts 161°
2026-04-21 21:20 10.59023 99.98597 16877 ft 410 kts 161°
2026-04-21 21:20 10.56319 99.99458 16274 ft 406 kts 161°
2026-04-21 21:21 10.53636 100.00313 15691 ft 402 kts 161°
2026-04-21 21:21 10.50982 100.01157 15120 ft 398 kts 161°
2026-04-21 21:21 10.48344 100.01997 14554 ft 395 kts 161°
2026-04-21 21:21 10.45735 100.02827 13997 ft 391 kts 161°
2026-04-21 21:22 10.43149 100.03649 13413 ft 388 kts 161°
2026-04-21 21:22 10.40585 100.04465 12821 ft 384 kts 162°
2026-04-21 21:22 10.38044 100.05273 12250 ft 382 kts 162°
2026-04-21 21:22 10.35519 100.06075 11723 ft 379 kts 161°
2026-04-21 21:23 10.33012 100.06872 11351 ft 376 kts 161°
2026-04-21 21:23 10.30535 100.07659 11181 ft 364 kts 161°
2026-04-21 21:23 10.28193 100.08401 11062 ft 343 kts 161°
2026-04-21 21:23 10.25980 100.09103 10945 ft 325 kts 161°
2026-04-21 21:24 10.23879 100.09769 10821 ft 308 kts 161°
2026-04-21 21:24 10.21871 100.10406 10697 ft 299 kts 161°
2026-04-21 21:24 10.19891 100.11036 10439 ft 298 kts 161°
2026-04-21 21:24 10.17919 100.11663 9969 ft 296 kts 161°
2026-04-21 21:25 10.15949 100.12289 9438 ft 298 kts 161°
2026-04-21 21:25 10.13966 100.12919 8882 ft 299 kts 161°
2026-04-21 21:25 10.11982 100.13550 8378 ft 299 kts 161°
2026-04-21 21:25 10.10000 100.14179 7882 ft 298 kts 161°
2026-04-21 21:26 10.08054 100.14795 7418 ft 297 kts 161°
2026-04-21 21:26 10.06116 100.15409 7069 ft 285 kts 162°
2026-04-21 21:26 10.04198 100.15778 6929 ft 281 kts 179°
2026-04-21 21:26 10.02255 100.15626 6864 ft 280 kts 187°
2026-04-21 21:27 10.00329 100.15320 6819 ft 280 kts 189°
2026-04-21 21:27 9.98409 100.14983 6765 ft 279 kts 189°
2026-04-21 21:27 9.96584 100.14333 6704 ft 280 kts 211°
2026-04-21 21:27 9.95008 100.13175 6667 ft 281 kts 218°
2026-04-21 21:28 9.93493 100.11919 6597 ft 281 kts 219°
2026-04-21 21:28 9.91990 100.10657 6527 ft 281 kts 219°
2026-04-21 21:28 9.88991 100.08133 6034 ft 279 kts 219°
2026-04-21 21:29 9.87505 100.06881 5757 ft 277 kts 219°
2026-04-21 21:29 9.86025 100.05633 5495 ft 276 kts 219°
2026-04-21 21:29 9.84554 100.04392 5274 ft 274 kts 219°
2026-04-21 21:29 9.83092 100.03154 5112 ft 273 kts 219°
2026-04-21 21:30 9.81635 100.01923 4968 ft 273 kts 219°
2026-04-21 21:30 9.80180 100.00693 4820 ft 272 kts 219°
2026-04-21 21:30 9.78726 99.99468 4633 ft 271 kts 219°
2026-04-21 21:30 9.77288 99.98254 4264 ft 267 kts 219°
2026-04-21 21:31 9.75741 99.97349 4105 ft 251 kts 194°
2026-04-21 21:31 9.74063 99.97297 3968 ft 238 kts 165°
2026-04-21 21:31 9.72660 99.98067 3831 ft 225 kts 138°
2026-04-21 21:31 9.71537 99.99155 3625 ft 222 kts 135°
2026-04-21 21:32 9.70425 100.00228 3412 ft 221 kts 138°
2026-04-21 21:32 9.69238 100.01219 3157 ft 220 kts 142°
2026-04-21 21:32 9.67995 100.02117 2953 ft 214 kts 146°
2026-04-21 21:32 9.66835 100.02866 2818 ft 184 kts 148°
2026-04-21 21:33 9.65801 100.03482 2677 ft 161 kts 150°
2026-04-21 21:33 9.64887 100.03999 2309 ft 145 kts 151°
2026-04-21 21:33 9.64012 100.04475 2110 ft 143 kts 151°
2026-04-21 21:33 9.63166 100.04981 1911 ft 140 kts 148°
2026-04-21 21:34 9.62327 100.05453 1685 ft 138 kts 158°
2026-04-21 21:34 9.61390 100.05640 1331 ft 137 kts 173°
2026-04-21 21:34 9.60439 100.05710 1045 ft 137 kts 173°
2026-04-21 21:34 9.59482 100.05796 804 ft 139 kts 174°
2026-04-21 21:35 9.58525 100.05881 660 ft 138 kts 173°
2026-04-21 21:35 9.57572 100.05977 493 ft 138 kts 172°
2026-04-21 21:35 9.56621 100.06075 305 ft 138 kts 174°
2026-04-21 21:35 9.55683 100.06160 103 ft 137 kts 173°
2026-04-21 21:36 9.54855 100.06241 59 ft 83 kts 174°
2026-04-21 21:36 9.54455 100.06279 56 ft 49 kts 174°
2026-04-21 21:36 9.54147 100.06309 59 ft 41 kts 174°
2026-04-21 21:36 9.53937 100.06317 56 ft 16 kts 191°
2026-04-21 21:37 9.53858 100.06315 51 ft 3 kts 148°
2026-04-21 21:37 9.53857 100.06324 51 ft 1 kts 99°
2026-04-21 21:37 9.53867 100.06332 58 ft 3 kts 39°
2026-04-21 21:37 9.53929 100.06334 51 ft 15 kts 351°
2026-04-21 21:38 9.54092 100.06313 53 ft 29 kts 354°
2026-04-21 21:38 9.54283 100.06295 53 ft 27 kts 355°
2026-04-21 21:38 9.54466 100.06278 53 ft 26 kts 354°
2026-04-21 21:38 9.54643 100.06262 58 ft 25 kts 354°
2026-04-21 21:39 9.54810 100.06245 51 ft 24 kts 354°
2026-04-21 21:39 9.54965 100.06229 53 ft 13 kts 354°
2026-04-21 21:39 9.54990 100.06236 55 ft 6 kts 27°
2026-04-21 21:39 9.55013 100.06272 54 ft 9 kts 70°
2026-04-21 21:40 9.55019 100.06335 54 ft 8 kts 85°
2026-04-21 21:40 9.55022 100.06371 56 ft 0 kts 85°